Walla Walla, WA
on Wednesday, November 7, 2012

Wednesday
Previous Day Next Day
Daily Summary
 ActualAverage (KPDT)Record (KPDT)
Temperature
Mean Temperature °F 44°F  
Max Temperature 59°F 53°F 71°F (1978)
Min Temperature 37°F 36°F 15°F (2003)
Degree Days
Heating Degree Days 15 21  
Month to date heating degree days 138  
Since 1 July heating degree days 680  
Cooling Degree Days 0 0  
Month to date cooling degree days 0  
Year to date cooling degree days 636  
Moisture
Dew Point 39°F   
Average Humidity 66    
Maximum Humidity 92    
Minimum Humidity 43    
Precipitation
Precipitation 0.14 in 0.05 in 1.07 in (1997)
Month to date precipitation 0.34  
Year to date precipitation 10.01  
Snow
Snow 0.00 in 0.00 in 1.80 in (1945)
Month to date snowfall 0.1  
Year to date snowfall 7.9  
Since 1 July snowfall 0.2  
Snow Depth in   
Wind
Wind Speed 13 mph   
Max Wind Speed 18 mph   
Max Gust Speed 25 mph   
Visibility 10 miles   
Events Rain   

Key: T is trace of precipitation, MM is missing value
Source: NWS Daily Summary
Time(PST)TemperatureDew PointHumidity Pressure Visibility Wind DirectionWind SpeedGust SpeedPrecipitationEvents Conditions
12:53 AM 59.0°F 46.9°F 64% 29.95 in 10.0 miles South 13.8 mph - N/A   Overcast
1:53 AM 59.0°F 46.9°F 64% 29.96 in 10.0 miles South 13.8 mph - N/A   Overcast
2:53 AM 57.0°F 48.0°F 72% 29.97 in 10.0 miles SSW 12.7 mph - 0.00 in   Overcast
3:14 AM 57.2°F 46.4°F 67% 29.97 in 10.0 miles SW 12.7 mph - N/A   Overcast
3:53 AM 55.0°F 48.0°F 77% 29.99 in 5.0 miles SW 10.4 mph - 0.01 in Rain Rain
4:53 AM 51.1°F 48.9°F 92% 30.03 in 4.0 miles SW 15.0 mph - 0.09 in Rain Rain
5:21 AM 50.0°F 46.4°F 87% 30.04 in 8.0 miles SSW 16.1 mph - 0.02 in Rain Light Rain
5:53 AM 48.9°F 45.0°F 86% 30.06 in 10.0 miles South 15.0 mph - 0.04 in Rain Light Rain
6:53 AM 48.9°F 39.9°F 71% 30.07 in 10.0 miles SSW 16.1 mph 25.3 mph 0.00 in   Overcast
7:53 AM 48.0°F 39.0°F 71% 30.09 in 10.0 miles SSW 18.4 mph - N/A   Mostly Cloudy
8:53 AM 48.9°F 39.9°F 71% 30.11 in 10.0 miles SSW 16.1 mph - N/A   Clear
9:53 AM 51.1°F 39.9°F 66% 30.10 in 10.0 miles SSW 13.8 mph 20.7 mph N/A   Clear
10:53 AM 53.1°F 37.9°F 57% 30.10 in 10.0 miles SSW 18.4 mph - N/A   Clear
11:53 AM 54.0°F 37.0°F 53% 30.08 in 10.0 miles SW 15.0 mph - N/A   Partly Cloudy
12:53 PM 53.1°F 36.0°F 52% 30.08 in 10.0 miles WSW 12.7 mph - N/A   Scattered Clouds
1:53 PM 55.0°F 33.1°F 43% 30.08 in 10.0 miles SW 13.8 mph - N/A   Scattered Clouds
2:53 PM 54.0°F 33.1°F 45% 30.07 in 10.0 miles WSW 11.5 mph - N/A   Clear
3:53 PM 52.0°F 35.1°F 53% 30.07 in 10.0 miles SSW 6.9 mph - N/A   Clear
4:53 PM 48.0°F 36.0°F 63% 30.06 in 10.0 miles SSE 6.9 mph - N/A   Clear
5:53 PM 48.0°F 33.1°F 56% 30.07 in 10.0 miles SSE 9.2 mph - N/A   Clear
6:53 PM 45.0°F 33.1°F 63% 30.05 in 10.0 miles SE 8.1 mph - N/A   Clear
7:53 PM 42.1°F 32.0°F 67% 30.03 in 10.0 miles East 8.1 mph - N/A   Clear
8:53 PM 41.0°F 32.0°F 70% 30.01 in 10.0 miles East 6.9 mph - N/A   Clear
9:53 PM 41.0°F 30.9°F 67% 29.99 in 10.0 miles ESE 8.1 mph - N/A   Clear
10:53 PM 41.0°F 30.9°F 67% 29.96 in 10.0 miles ESE 9.2 mph - N/A   Clear
11:53 PM 37.9°F 30.0°F 73% 29.94 in 10.0 miles East 9.2 mph - N/A   Clear
Moon Phase
Nov. 07 Nov. 13 Nov. 20 Nov. 28 Dec. 06
Sunrise:06:43 AM (PST) Moon Rise:No Moon Rise/
Sunset:04:29 PM (PST) Moon Set:01:01 PM (PST)11/7

Copyright © 2014 The Weather Underground, Inc.